Temperature
19 19 19 19 22 23 23 23 24 24 24 23 23 24 24 23 23 22 18 18 18 18 17 18 18 18 18 18 18 18 18 18 18 18 18 18 18 18 18 18 18 18 18 18 18 18 18 18 18
18 19 19 21 23 24 23 23 24 24 24 23 23 23 24 22 21 19 18 18 18 17 17 17 18 18 18 18 18 18 17 17 17 17 17 17 17 17 17 17 17 17 17 17 18 18 18 18 18
19 19 20 23 23 24 23 23 24 23 23 23 23 23 23 22 20 19 18 18 17 17 17 17 18 17 17 17 17 17 17 17 17 17 17 17 17 17 17 17 17 17 17 17 17 17 17 18 18
18 19 21 23 23 24 24 24 24 23 23 23 23 23 22 20 20 19 18 18 17 17 17 17 17 17 17 17 17 17 17 17 17 17 17 17 17 17 17 17 17 17 17 17 17 17 17 18 18
19 21 23 23 24 24 24 24 23 24 24 24 24 23 21 19 19 19 18 18 18 17 17 17 17 17 17 17 17 17 17 17 16 16 16 16 16 16 16 17 17 17 17 17 17 17 17 17 17
20 22 23 23 23 24 24 23 23 24 24 23 23 23 21 19 19 18 18 18 18 17 17 17 17 17 17 17 17 17 16 16 16 16 16 16 16 16 16 16 16 16 16 16 16 17 17 17 17
21 23 23 24 23 23 23 23 24 24 24 23 23 23 21 20 19 18 18 18 18 17 17 17 17 17 17 17 16 16 16 16 16 16 16 16 16 16 16 16 16 16 16 16 16 16 16 17 17
20 23 23 23 23 23 23 23 23 23 23 22 22 23 22 20 19 18 18 18 17 17 17 17 17 17 16 16 16 16 16 16 16 16 15 15 15 15 15 15 15 15 15 16 16 16 16 16 16
20 23 23 23 23 23 23 23 23 22 22 22 22 22 21 20 19 18 18 18 18 18 17 17 17 16 16 16 16 16 16 15 15 15 15 15 15 15 15 15 15 15 15 15 15 16 16 16 16
21 23 23 23 23 23 23 23 23 23 23 22 22 21 20 19 19 19 19 19 19 18 18 17 17 17 16 16 16 15 15 15 15 15 15 15 15 15 15 15 15 15 15 15 15 15 16 16 16
22 22 23 23 22 22 23 23 23 23 24 23 22 21 20 20 20 20 20 20 19 19 18 18 17 17 17 16 16 16 15 15 15 15 15 14 15 15 15 15 15 14 14 15 15 15 15 15 16
22 22 22 22 21 22 23 23 23 23 23 23 22 21 21 20 20 20 20 20 19 19 18 18 17 17 17 16 16 16 15 15 15 15 14 14 14 14 14 14 14 14 14 14 14 15 15 15 15
22 22 21 21 21 22 22 23 23 23 22 22 21 21 21 21 21 21 20 20 19 19 18 18 17 17 17 16 16 16 15 15 15 14 14 14 14 14 14 14 14 14 14 14 14 15 15 15 15
22 22 22 21 22 22 23 23 23 23 22 22 21 21 21 21 21 21 20 20 20 19 19 18 17 17 17 17 16 16 15 15 15 14 14 14 14 14 14 14 14 14 14 14 14 14 14 15 15
21 22 23 22 22 22 23 24 24 23 22 22 22 22 21 21 21 21 21 20 20 19 19 18 18 17 17 17 16 16 15 15 15 14 14 14 14 14 14 14 14 14 14 14 14 14 14 14 15
23 23 23 23 22 22 23 23 24 22 22 22 22 22 21 21 21 21 21 20 20 19 19 18 18 17 17 16 16 16 15 15 15 14 14 14 14 14 13 13 13 13 13 13 14 14 14 14 15
23 23 23 23 23 23 23 23 24 22 23 23 23 22 22 22 21 21 21 20 20 19 19 18 18 17 17 16 16 15 15 15 15 14 14 14 14 13 13 13 13 13 13 13 13 14 14 14 14
23 23 23 23 23 23 23 24 24 23 23 23 23 23 23 22 22 21 21 20 20 19 19 18 18 18 17 17 16 16 15 15 14 14 14 13 13 13 13 13 13 13 13 13 13 13 13 14 14
24 24 23 23 23 23 23 24 24 24 23 24 24 23 23 23 22 21 21 20 20 20 19 19 18 18 17 17 16 16 15 15 14 14 14 13 13 13 13 13 13 13 13 13 13 13 13 14 14
23 23 23 23 23 23 24 24 25 24 23 23 23 23 23 22 22 21 21 20 20 20 19 19 18 18 17 17 16 16 15 15 14 14 14 13 13 13 13 13 13 13 13 13 13 13 13 13 14
23 23 23 23 23 24 24 25 25 25 24 23 22 22 23 22 22 21 21 20 20 20 20 19 18 18 18 17 16 16 15 15 14 14 14 14 13 13 13 13 13 13 13 13 13 13 13 13 14
23 23 23 23 24 24 25 24 25 25 25 24 23 22 22 21 21 21 20 20 20 20 20 19 19 18 17 17 16 16 15 15 15 14 14 14 13 13 13 13 13 13 13 13 13 13 13 13 13
23 23 23 24 25 25 25 25 25 25 24 24 23 22 21 21 21 21 20 20 20 20 20 19 18 18 17 17 16 16 15 15 15 14 14 14 14 13 13 13 13 13 13 13 13 13 13 13 13
23 23 24 24 25 24 24 25 24 24 23 23 23 22 21 20 20 20 20 20 20 20 20 19 19 18 18 17 16 16 15 15 15 14 14 14 14 13 13 13 13 13 13 13 13 13 13 13 13
23 25 24 24 24 24 24 24 23 23 22 22 22 21 20 20 20 19 19 19 20 20 20 19 19 18 18 17 17 16 16 15 15 14 14 14 14 14 13 13 13 13 13 13 13 13 13 13 13
24 25 24 24 24 24 24 24 23 22 21 21 20 20 19 19 19 18 19 19 19 19 19 19 19 18 18 17 16 16 16 15 15 14 14 14 14 14 13 13 13 13 13 13 13 13 13 13 13
24 25 25 25 25 24 24 24 23 23 22 21 20 20 19 18 18 17 18 18 18 19 19 19 18 18 17 17 17 16 16 15 15 15 14 14 14 14 13 13 13 13 13 13 13 13 13 13 13
24 24 25 25 24 23 23 23 22 22 21 21 20 19 18 18 17 17 17 17 18 18 18 18 18 17 17 17 16 16 16 16 15 15 14 14 14 14 14 14 13 13 13 13 13 13 13 13 13
24 24 24 24 24 24 23 22 22 21 20 20 20 19 18 17 17 17 17 17 17 17 18 18 17 17 17 17 16 16 16 16 15 15 15 14 14 14 14 14 14 14 13 13 13 13 13 13 13
24 24 24 24 24 24 24 22 21 20 20 19 19 18 17 17 17 17 17 17 17 17 17 17 17 17 17 16 16 16 16 16 15 15 15 14 14 14 14 14 14 14 13 13 13 13 13 13 13
Wind_Speed
5 3 2 2 3 1 3 3 2 3 3 4 4 4 5 6 5 4 5 7 8 9 9 10 9 9 8 8 8 8 8 7 7 6 6 5 4 3 2 2 1 1 1 1 1 2 2 2 2
4 2 2 3 2 2 3 2 3 4 5 5 4 4 5 6 6 6 7 8 9 9 9 9 10 9 9 9 8 8 8 7 7 6 6 5 4 4 3 3 2 2 2 2 2 2 2 3 3
4 2 2 2 1 2 4 3 3 4 4 2 3 4 4 5 5 5 8 10 9 9 9 10 9 9 9 9 8 8 7 6 6 5 5 5 4 4 4 4 4 3 3 3 3 3 3 3 3
3 2 3 2 3 3 3 4 4 4 3 2 3 5 5 5 4 8 11 10 10 9 9 10 9 9 8 8 8 7 6 6 5 5 5 5 4 4 4 4 4 4 4 4 4 4 4 4 4
2 3 2 1 2 3 3 3 3 3 2 2 3 5 6 6 9 11 11 10 10 9 9 10 9 8 8 8 7 7 6 5 5 5 5 5 5 5 4 4 5 4 4 4 4 4 4 4 4
2 2 2 1 3 3 3 3 3 3 3 3 4 5 6 8 10 11 11 9 9 9 8 9 9 7 6 6 6 6 5 5 5 5 5 5 5 5 5 5 5 5 4 4 5 5 5 5 5
2 2 1 1 2 3 3 2 2 2 2 2 3 5 7 9 10 10 10 9 8 7 7 6 7 7 7 5 5 5 4 5 5 4 4 4 5 5 5 5 5 5 5 5 5 5 5 5 5
2 2 2 1 2 4 3 2 2 1 2 3 2 3 6 11 11 10 9 8 7 7 6 5 5 4 4 5 6 4 4 4 4 4 4 4 2 1 3 4 4 5 5 5 5 5 5 5 5
2 3 2 1 2 4 3 3 2 1 3 3 2 3 7 14 13 11 9 8 7 6 5 5 4 3 3 3 4 3 3 2 0 1 2 3 4 4 3 5 6 5 5 5 5 5 5 6 6
3 2 1 2 2 2 2 2 2 3 3 3 4 6 10 14 13 12 10 9 8 7 6 4 4 3 2 1 2 0 1 1 2 4 4 4 4 4 5 2 2 4 4 4 3 5 7 8 5
3 1 2 2 2 1 2 2 2 2 2 2 5 9 12 13 12 11 9 8 7 6 5 4 4 3 2 1 0 1 1 1 2 3 4 4 4 4 4 4 2 3 5 5 3 6 5 5 4
3 2 2 2 1 1 1 2 2 2 1 3 5 8 12 12 12 11 9 7 6 5 5 4 4 3 2 1 1 0 1 2 3 3 5 4 4 4 4 4 5 5 4 5 6 5 5 5 5
4 3 2 1 1 1 2 2 1 2 1 3 7 9 11 11 11 9 8 7 6 6 5 5 4 3 2 1 1 1 1 2 2 3 4 4 4 4 4 4 4 5 5 5 5 5 5 5 5
3 3 2 1 1 1 2 2 2 2 3 5 7 8 10 10 10 9 9 8 7 6 6 5 5 4 3 3 2 1 1 1 3 3 4 4 4 4 4 5 4 5 5 6 6 5 5 5 5
5 4 3 2 1 0 2 2 3 2 3 4 6 7 8 9 10 10 9 8 7 7 6 6 5 4 4 3 1 1 1 2 2 3 4 4 4 4 5 5 4 5 5 6 5 5 5 5 4
5 4 4 3 1 0 3 3 4 2 3 4 5 6 7 9 10 10 9 8 8 7 7 6 5 5 4 3 2 1 1 2 2 3 3 4 4 5 5 4 5 5 5 5 5 5 4 4 4
5 5 4 4 2 1 2 1 3 1 2 4 5 6 7 8 9 9 9 8 8 8 7 7 6 5 4 3 2 2 1 1 2 2 3 4 4 5 4 4 5 6 5 5 5 4 5 4 4
6 5 4 4 2 1 1 1 3 1 2 3 4 5 5 6 7 7 8 8 8 8 8 7 6 6 5 4 3 2 1 1 1 2 2 4 4 5 5 4 5 5 4 4 4 5 4 4 3
4 4 5 4 2 1 1 1 3 2 2 1 2 3 4 4 4 5 7 8 9 9 9 8 8 7 5 4 3 2 1 1 1 1 2 3 3 4 4 5 4 4 4 5 5 5 4 3 3
5 6 6 4 2 1 2 3 5 5 4 2 1 1 1 2 2 4 6 8 9 10 9 9 8 7 6 4 3 2 1 2 1 2 2 3 3 4 4 5 4 4 4 4 5 4 4 3 2
5 5 4 4 3 3 2 8 8 7 6 5 4 3 3 2 1 2 4 6 8 9 9 8 8 8 7 5 3 2 2 2 2 2 2 2 3 4 4 5 4 4 4 4 4 4 4 4 2
5 3 3 3 4 4 1 8 9 7 8 8 7 6 5 3 1 1 3 4 6 7 8 8 8 7 7 6 5 4 3 2 2 2 2 3 2 3 4 4 4 4 4 4 4 4 4 4 3
3 3 3 3 4 6 3 6 8 8 9 10 9 8 7 5 3 1 1 2 3 5 7 7 7 7 6 6 5 5 4 3 2 2 2 3 2 3 3 4 4 4 3 4 4 4 4 3 3
4 5 5 4 5 6 4 4 7 7 9 10 10 10 9 7 5 3 2 1 1 3 5 6 7 6 6 6 6 6 4 4 3 3 3 3 2 2 2 3 3 3 3 3 4 4 3 3 3
4 5 5 6 5 6 3 4 7 8 9 9 10 10 10 9 7 6 4 2 1 2 4 6 7 7 7 7 7 6 5 5 5 4 3 4 3 2 2 3 3 3 3 3 3 3 3 3 3
2 2 1 4 5 6 4 6 7 8 8 8 8 9 10 10 9 7 6 4 2 1 3 5 6 6 6 7 7 6 6 5 4 5 4 4 4 3 3 3 3 3 3 3 3 3 3 3 2
2 2 3 3 5 5 6 7 6 7 9 11 11 12 12 11 10 9 8 6 4 2 0 3 5 5 5 6 6 6 6 6 5 5 5 5 4 4 4 4 4 3 3 3 3 2 3 2 2
3 2 2 3 4 4 6 5 3 6 9 10 11 12 11 11 10 10 8 7 6 4 2 0 2 4 5 5 6 5 6 6 6 6 6 6 6 5 5 5 5 4 4 3 3 3 3 3 2
3 2 1 1 0 2 5 4 4 5 6 8 9 10 10 10 10 9 8 8 6 5 4 3 1 2 3 5 5 6 6 6 7 6 6 6 6 6 6 6 6 5 5 4 4 4 3 4 3
1 1 1 2 2 0 2 4 5 5 5 6 8 9 9 9 9 9 9 8 7 6 5 3 3 2 3 4 5 5 5 6 7 7 7 7 7 7 7 6 6 6 6 5 5 5 5 5 4
Wind_Direction
182 180 231 257 233 161 83 75 79 93 83 74 68 66 62 45 27 61 101 123 123 126 126 127 119 114 110 108 106 100 96 91 85 81 77 74 70 61 47 31 17 347 296 299 344 334 341 348 352
173 190 237 248 246 127 99 85 86 69 94 108 91 75 70 67 62 94 117 124 127 123 124 117 115 112 108 105 101 95 89 82 78 70 64 57 49 36 19 2 344 323 303 297 300 306 325 329 328
171 229 257 245 139 88 103 109 94 92 108 97 89 67 59 72 90 103 118 131 128 121 118 112 115 112 109 105 100 94 86 78 70 62 53 44 32 18 3 349 338 331 326 318 314 310 311 312 317
198 218 235 221 109 84 92 111 121 123 114 90 103 95 81 73 96 115 126 132 128 123 118 114 116 113 110 105 98 91 84 74 64 57 49 39 24 9 358 346 337 328 322 313 310 307 297 292 300
226 246 224 161 102 94 94 120 155 147 121 117 111 101 98 94 108 122 131 133 130 125 119 116 115 114 110 105 98 92 85 73 64 54 45 36 23 10 358 345 336 326 320 317 315 308 301 291 287
221 239 224 157 112 105 111 141 168 159 125 124 123 109 101 120 127 130 132 132 126 124 123 120 119 112 105 101 95 87 77 65 57 51 41 31 19 8 358 346 338 330 321 314 308 305 301 295 290
246 236 220 147 130 119 101 132 163 151 132 117 122 113 122 136 135 138 137 133 128 127 125 121 123 127 124 107 90 79 71 64 53 42 34 23 15 2 351 340 337 327 318 308 304 300 298 298 289
263 242 193 172 137 109 107 133 124 140 100 101 133 114 135 148 146 144 141 139 138 140 138 131 123 116 117 121 103 82 72 63 49 38 25 2 325 319 320 302 351 332 323 315 309 302 295 291 281
236 223 188 130 99 103 122 136 117 119 127 125 96 70 124 143 151 153 153 155 155 154 152 148 139 124 115 106 110 120 112 81 281 98 57 301 326 342 307 10 353 335 329 322 315 305 296 281 246
214 215 134 70 66 99 130 131 144 162 154 154 125 114 134 152 161 166 168 165 165 164 164 161 162 155 151 129 120 97 21 26 345 357 349 336 345 340 331 48 349 337 322 287 292 288 264 263 262
200 197 120 93 86 126 167 157 177 191 175 159 151 148 154 165 171 176 175 169 166 166 168 176 179 175 171 161 155 11 353 351 341 350 342 329 326 323 329 331 323 312 296 302 293 269 275 281 281
176 130 130 97 123 197 198 173 175 222 143 122 142 154 163 172 179 182 180 175 174 179 182 183 192 184 185 183 131 291 333 341 348 345 337 335 334 327 343 328 339 326 323 322 306 295 290 286 274
180 138 117 123 132 215 220 212 234 236 195 150 148 161 173 179 181 184 185 183 184 188 193 192 194 198 189 174 226 285 339 336 348 345 330 336 328 331 337 329 332 325 327 315 305 297 304 292 285
154 145 151 149 145 191 219 224 202 166 148 151 157 169 181 185 187 188 194 196 197 197 193 184 192 195 205 200 215 313 339 340 335 343 341 337 335 331 327 325 329 328 327 328 312 302 299 284 283
160 160 146 132 158 217 242 189 158 138 147 157 165 173 184 192 197 201 200 202 201 197 193 184 188 195 203 217 235 279 303 332 342 346 337 338 337 328 327 326 327 331 325 317 313 311 297 286 277
177 186 164 129 139 161 246 135 93 122 163 175 176 179 193 203 209 209 207 206 200 197 193 186 187 192 194 206 223 230 277 326 335 341 337 336 335 334 330 327 328 327 321 317 315 309 299 288 285
179 175 155 133 126 156 230 112 79 110 193 196 191 194 202 208 216 214 214 211 203 199 196 191 190 190 188 189 199 224 261 303 322 335 342 333 337 334 330 327 325 324 322 321 319 320 308 302 299
166 158 148 130 121 191 187 331 42 92 209 207 197 206 210 215 220 216 211 207 201 199 197 192 186 190 179 180 197 197 232 273 316 334 344 337 332 336 331 321 326 329 326 327 323 319 309 300 288
154 150 127 102 108 185 110 50 47 72 134 176 201 219 237 234 224 211 205 199 195 196 197 191 190 183 180 179 200 217 224 259 287 317 335 323 325 329 330 323 331 329 331 330 328 322 311 302 302
151 136 115 107 103 122 100 96 77 75 75 60 8 321 299 277 227 200 202 197 197 194 197 194 192 187 187 186 196 214 238 269 291 284 287 308 321 325 324 325 320 323 321 326 330 327 317 313 302
125 124 119 119 126 142 141 114 90 80 75 66 45 19 12 350 271 186 196 199 200 198 196 195 193 187 189 188 186 185 199 240 236 249 278 300 312 319 322 324 320 323 322 333 330 326 322 316 310
114 98 133 152 154 115 139 114 82 72 73 57 41 27 12 2 352 200 195 200 205 199 195 196 192 192 190 191 201 210 238 269 289 294 286 281 293 312 315 314 315 320 326 328 327 336 319 307 306
106 133 153 160 145 126 94 116 91 70 56 39 32 24 16 9 1 352 217 206 202 191 190 194 189 192 191 197 201 220 241 266 279 276 273 288 298 301 306 308 309 315 321 324 327 330 323 314 311
142 158 151 164 164 117 63 107 87 52 26 19 22 22 20 18 22 25 36 77 156 174 180 184 187 189 190 199 209 223 240 252 263 266 278 282 286 291 298 297 300 307 316 319 322 320 319 319 319
209 195 163 157 148 110 79 92 81 47 28 19 16 19 24 28 32 35 36 44 94 168 185 186 189 192 194 203 215 224 235 246 254 264 265 277 290 292 303 292 295 304 309 312 312 307 310 304 304
179 264 172 150 140 127 130 109 87 50 37 32 32 34 36 36 35 36 32 30 36 149 190 194 198 201 201 211 219 226 231 243 256 260 271 273 287 294 297 288 290 294 294 292 292 297 302 303 295
150 86 14 114 127 138 122 117 105 46 44 40 39 40 38 35 35 34 33 32 30 25 246 212 206 211 213 221 226 229 234 241 250 256 259 269 275 279 278 275 275 281 278 279 279 290 297 291 293
28 106 185 178 157 144 140 132 81 31 28 31 34 34 33 32 33 34 33 31 32 33 29 331 227 230 228 230 233 235 240 241 248 255 258 263 269 268 265 270 270 271 266 260 266 276 292 281 270
134 138 111 105 211 174 157 120 46 39 29 31 35 35 33 32 31 30 29 29 29 33 38 35 333 261 250 244 240 238 240 243 245 249 256 258 261 258 259 263 269 269 262 255 244 258 265 272 274
26 55 227 194 138 164 155 110 70 63 48 39 38 38 36 34 32 30 27 28 27 24 20 16 358 319 281 263 253 248 248 246 249 251 255 258 259 259 260 260 262 263 260 257 251 250 253 259 269
Height
1510 1510 1510 1511 1509 1506 1508 1507 1504 1505 1505 1508 1508 1508 1508 1510 1513 1521 1522 1520 1522 1523 1524 1524 1525 1526 1527 1528 1529 1529 1530 1530 1530 1531 1531 1531 1531 1531 1531 1531 1531 1531 1531 1530 1530 1530 1530 1530 1529
1510 1510 1512 1511 1506 1510 1511 1506 1506 1506 1508 1509 1510 1510 1510 1514 1517 1520 1520 1521 1523 1524 1525 1526 1526 1527 1528 1528 1529 1529 1530 1530 1530 1531 1531 1531 1531 1531 1531 1531 1530 1530 1530 1530 1530 1530 1529 1529 1529
1510 1511 1512 1507 1506 1508 1510 1506 1506 1508 1510 1510 1511 1512 1513 1517 1519 1521 1522 1523 1524 1525 1526 1526 1527 1528 1528 1529 1529 1530 1530 1530 1530 1530 1530 1530 1530 1530 1530 1530 1529 1529 1529 1529 1529 1529 1529 1529 1528
1511 1512 1511 1507 1508 1505 1505 1505 1507 1509 1510 1511 1511 1514 1517 1520 1521 1522 1523 1524 1526 1527 1528 1527 1528 1529 1529 1529 1530 1530 1530 1530 1530 1530 1530 1530 1529 1529 1529 1529 1528 1528 1528 1528 1528 1528 1527 1527 1528
1511 1511 1508 1507 1506 1505 1505 1507 1509 1509 1510 1511 1512 1514 1518 1521 1522 1523 1524 1526 1528 1528 1529 1529 1529 1530 1530 1530 1530 1530 1530 1530 1530 1530 1529 1529 1529 1528 1528 1527 1527 1527 1527 1527 1526 1526 1526 1526 1526
1512 1509 1509 1509 1507 1506 1507 1509 1510 1509 1511 1513 1514 1515 1520 1522 1523 1525 1526 1527 1529 1529 1530 1531 1530 1530 1531 1531 1531 1530 1530 1530 1530 1529 1529 1528 1528 1528 1527 1527 1526 1526 1525 1525 1525 1525 1525 1525 1525
1511 1507 1507 1506 1507 1507 1509 1510 1510 1510 1511 1514 1515 1516 1521 1523 1525 1526 1527 1528 1529 1530 1531 1532 1533 1532 1531 1531 1531 1531 1531 1530 1530 1529 1528 1528 1527 1527 1526 1526 1525 1525 1524 1524 1524 1523 1523 1523 1523
1510 1508 1506 1506 1508 1509 1510 1511 1511 1512 1513 1516 1516 1516 1520 1524 1525 1527 1528 1529 1530 1531 1532 1533 1533 1534 1534 1533 1532 1531 1531 1530 1530 1529 1528 1528 1527 1526 1526 1525 1524 1524 1523 1523 1522 1522 1522 1521 1521
1511 1509 1508 1508 1509 1509 1510 1510 1513 1513 1514 1516 1517 1518 1520 1523 1525 1527 1529 1530 1531 1532 1533 1534 1534 1534 1534 1534 1533 1532 1532 1531 1530 1530 1528 1528 1528 1528 1526 1525 1523 1523 1522 1521 1521 1520 1520 1520 1520
1510 1509 1509 1509 1508 1509 1510 1511 1512 1513 1514 1516 1518 1519 1521 1523 1526 1528 1529 1531 1532 1533 1534 1534 1535 1535 1535 1535 1534 1534 1533 1532 1531 1530 1529 1529 1528 1526 1525 1523 1522 1521 1520 1520 1519 1519 1519 1519 1520
1508 1508 1509 1510 1511 1511 1511 1512 1512 1512 1513 1514 1517 1519 1521 1524 1526 1528 1530 1531 1532 1533 1534 1534 1535 1535 1535 1535 1534 1534 1533 1532 1531 1530 1529 1528 1527 1526 1525 1524 1523 1522 1520 1520 1519 1518 1519 1518 1518
1509 1509 1510 1511 1512 1512 1511 1512 1512 1513 1514 1515 1516 1519 1521 1524 1526 1528 1529 1531 1532 1533 1534 1534 1535 1536 1536 1535 1535 1534 1533 1532 1531 1530 1529 1528 1527 1526 1525 1524 1522 1521 1520 1518 1518 1517 1517 1517 1517
1508 1510 1511 1512 1512 1512 1512 1512 1513 1513 1514 1515 1516 1518 1521 1523 1526 1528 1529 1531 1532 1533 1534 1534 1535 1535 1535 1535 1534 1534 1533 1532 1531 1529 1528 1528 1527 1526 1524 1523 1521 1521 1519 1518 1517 1516 1516 1515 1515
1509 1510 1511 1511 1512 1512 1512 1512 1512 1512 1514 1515 1516 1518 1521 1523 1525 1527 1529 1530 1531 1532 1533 1534 1534 1535 1535 1535 1534 1534 1533 1531 1531 1529 1528 1527 1526 1525 1524 1523 1521 1520 1518 1517 1516 1515 1514 1514 1514
1510 1509 1510 1511 1511 1512 1512 1510 1510 1512 1514 1514 1516 1518 1520 1522 1524 1526 1528 1529 1531 1532 1533 1533 1534 1534 1534 1534 1534 1533 1532 1532 1530 1529 1528 1527 1526 1524 1523 1522 1521 1519 1517 1516 1515 1514 1513 1513 1512
1508 1508 1510 1510 1511 1512 1513 1512 1510 1512 1513 1514 1515 1517 1519 1521 1523 1525 1526 1528 1529 1531 1532 1532 1533 1533 1533 1533 1533 1533 1532 1531 1530 1529 1527 1526 1525 1524 1522 1521 1520 1518 1516 1515 1514 1513 1512 1512 1511
1506 1508 1509 1510 1510 1510 1510 1511 1510 1512 1512 1513 1515 1516 1518 1520 1522 1523 1525 1527 1528 1529 1531 1532 1532 1532 1532 1532 1532 1531 1531 1530 1529 1528 1527 1526 1525 1523 1522 1520 1518 1517 1516 1514 1513 1512 1511 1511 1510
1507 1506 1508 1508 1509 1509 1509 1509 1509 1511 1512 1512 1513 1515 1516 1518 1519 1521 1523 1524 1526 1528 1529 1530 1530 1531 1531 1531 1531 1531 1530 1530 1529 1528 1526 1524 1524 1522 1521 1520 1518 1516 1515 1513 1512 1511 1510 1509 1509
1502 1504 1506 1508 1509 1509 1508 1509 1508 1510 1511 1511 1512 1513 1514 1516 1518 1519 1521 1522 1524 1526 1527 1528 1529 1530 1530 1530 1530 1530 1530 1529 1528 1527 1525 1524 1523 1521 1520 1519 1517 1515 1514 1513 1512 1510 1510 1509 1509
1503 1505 1508 1509 1508 1508 1508 1508 1507 1510 1511 1512 1512 1513 1514 1515 1516 1517 1519 1520 1522 1524 1526 1527 1528 1529 1529 1529 1529 1529 1528 1528 1527 1526 1525 1524 1522 1521 1520 1518 1517 1515 1513 1512 1511 1509 1509 1508 1508
1505 1506 1509 1510 1508 1507 1507 1509 1507 1509 1511 1512 1513 1514 1514 1515 1515 1516 1517 1519 1521 1522 1524 1525 1526 1527 1527 1527 1527 1527 1527 1527 1527 1526 1525 1523 1522 1520 1519 1518 1516 1515 1514 1512 1511 1509 1508 1508 1508
1509 1507 1508 1509 1507 1510 1506 1515 1510 1508 1510 1511 1513 1514 1514 1515 1515 1516 1516 1517 1519 1521 1522 1524 1525 1526 1526 1526 1526 1527 1527 1527 1527 1526 1524 1523 1521 1520 1518 1517 1516 1515 1513 1512 1511 1510 1508 1507 1507
1508 1508 1507 1506 1505 1506 1505 1508 1514 1509 1512 1513 1515 1515 1515 1515 1515 1515 1516 1516 1518 1519 1520 1522 1523 1524 1524 1525 1525 1525 1526 1526 1525 1524 1524 1523 1521 1519 1518 1516 1515 1514 1513 1512 1510 1509 1508 1507 1507
1508 1507 1506 1504 1502 1515 1513 1511 1522 1516 1518 1516 1516 1517 1516 1515 1515 1515 1515 1515 1516 1517 1518 1520 1521 1522 1522 1523 1523 1524 1524 1524 1524 1523 1523 1522 1521 1519 1518 1516 1515 1514 1512 1511 1510 1509 1508 1507 1506
1506 1505 1511 1514 1515 1519 1514 1515 1524 1521 1522 1521 1520 1519 1518 1516 1515 1514 1514 1514 1515 1516 1517 1518 1519 1520 1521 1522 1522 1523 1523 1523 1523 1523 1522 1521 1520 1519 1517 1516 1514 1513 1512 1511 1509 1508 1507 1507 1506
1503 1502 1510 1520 1521 1519 1514 1518 1522 1523 1525 1524 1523 1521 1519 1517 1516 1515 1515 1514 1514 1515 1516 1517 1518 1519 1520 1520 1521 1521 1521 1521 1521 1521 1520 1520 1519 1518 1516 1515 1514 1512 1511 1510 1509 1508 1507 1506 1506
1503 1503 1503 1505 1511 1516 1517 1518 1519 1522 1523 1524 1523 1521 1520 1519 1518 1517 1516 1515 1515 1514 1515 1516 1517 1518 1518 1519 1519 1519 1520 1519 1519 1519 1519 1518 1517 1516 1515 1514 1513 1512 1510 1509 1509 1508 1507 1505 1505
1504 1504 1505 1507 1519 1525 1525 1523 1526 1525 1525 1525 1524 1524 1523 1522 1520 1519 1517 1516 1515 1515 1514 1515 1515 1516 1516 1517 1517 1518 1518 1517 1517 1517 1517 1516 1515 1514 1513 1513 1512 1511 1510 1509 1508 1507 1506 1505 1504
1507 1508 1507 1508 1509 1519 1528 1531 1527 1528 1529 1528 1528 1527 1525 1524 1522 1521 1519 1518 1516 1515 1515 1514 1514 1514 1514 1515 1515 1515 1515 1515 1515 1514 1514 1513 1513 1512 1511 1511 1510 1509 1509 1508 1507 1506 1505 1504 1503
1506 1506 1506 1511 1516 1514 1518 1533 1529 1530 1531 1530 1529 1528 1527 1525 1524 1522 1520 1518 1517 1515 1515 1514 1513 1513 1513 1513 1513 1513 1513 1513 1512 1512 1511 1511 1510 1510 1509 1509 1508 1508 1507 1506 1505 1504 1503 1503 1502